CW4352 Weather Reports


time (UTC)temp
C
wind
direction
speed
KPH
gust
KPH
rain 1hr
cm
rain 24hr
cm
rain mn
cm
humidity
%
barometer
mb
20260507191704 16 36 0.0 0.0 0.00 0.00 0.00 62 1007.6
20260507184704 17 36 0.0 0.0 0.00 0.00 0.00 57 1006.6
20260507184203 17 36 0.0 0.0 0.00 0.00 0.00 56 1006.6
20260507183205 18 36 0.0 1.6 0.00 0.00 0.00 55 1006.6
20260507181204 18 36 0.0 1.6 0.00 0.00 0.00 50 1006.6
20260507180205 19 36 0.0 4.8 0.00 0.00 0.00 47 1006.6
20260507173205 20 36 1.6 4.8 0.00 0.00 0.00 43 1006.6
20260507171705 21 36 0.0 3.2 0.00 0.00 0.00 42 1006.6
20260507171204 21 36 0.0 1.6 0.00 0.00 0.00 42 1006.4
20260507170205 21 36 1.6 4.8 0.00 0.00 0.00 41 1006.4
20260507164205 21 36 1.6 4.8 0.00 0.00 0.00 40 1006.4
20260507160205 21 36 1.6 4.8 0.00 0.00 0.00 40 1006.4
20260507151205 22 36 1.6 4.8 0.00 0.00 0.00 40 1006.8
20260507144204 22 36 3.2 4.8 0.00 0.00 0.00 39 1006.8
20260507143205 23 36 3.2 9.7 0.00 0.00 0.00 37 1006.7
20260507140205 22 32 3.2 11.3 0.00 0.00 0.00 36 1006.9
20260507134205 22 31 3.2 8.0 0.00 0.00 0.00 38 1006.9
20260507133205 22 23 1.6 8.0 0.00 0.00 0.00 37 1006.9
20260507131704 22 15 1.6 4.8 0.00 0.00 0.00 38 1006.9
20260507131205 22 18 1.6 4.8 0.00 0.00 0.00 39 1006.9
20260507124205 22 17 3.2 8.0 0.00 0.00 0.00 42 1006.9
20260507123704 22 14 3.2 4.8 0.00 0.00 0.00 41 1006.9
20260507121704 21 12 3.2 4.8 0.00 0.00 0.00 41 1007.4
20260507121205 21 26 3.2 8.0 0.00 0.00 0.00 43 1007.4
20260507120204 21 26 1.6 4.8 0.00 0.00 0.00 44 1007.4
20260507113205 21 26 1.6 4.8 0.00 0.00 0.00 42 1007.8
20260507111704 21 27 3.2 8.0 0.00 0.00 0.00 41 1007.8
20260507111204 21 22 1.6 4.8 0.00 0.00 0.00 42 1007.8
20260507110705 20 26 3.2 4.8 0.00 0.00 0.00 44 1007.8
20260507110205 20 33 3.2 9.7 0.00 0.00 0.00 40 1007.8
20260507104705 20 355 1.6 4.8 0.00 0.00 0.00 40 1007.8
20260507103204 21 355 0.0 4.8 0.00 0.05 0.00 40 1008.1
20260507094705 20 336 1.6 8.0 0.00 0.20 0.00 42 1008.1
20260507090705 21 227 0.0 4.8 0.00 0.20 0.00 40 1008.0
20260507090204 20 227 1.6 4.8 0.00 0.20 0.00 40 1007.9
20260507084705 20 227 0.0 4.8 0.00 0.20 0.00 42 1007.9
20260507084205 20 208 1.6 4.8 0.00 0.20 0.00 40 1007.9
20260507083704 20 210 1.6 4.8 0.00 0.20 0.00 39 1007.9
20260507083205 20 208 0.0 4.8 0.00 0.20 0.00 40 1007.9
20260507080204 19 212 0.0 4.8 0.00 0.20 0.00 41 1007.9
20260507074704 18 212 1.6 4.8 0.00 0.20 0.00 50 1007.9
20260507074205 18 212 1.6 4.8 0.00 0.20 0.00 52 1007.9
20260507073204 17 212 0.0 4.8 0.00 0.20 0.00 52 1007.9
20260507071705 17 212 1.6 4.8 0.00 0.20 0.00 54 1007.9
20260507070705 16 212 0.0 4.8 0.00 0.20 0.00 59 1007.2
20260507063705 13 212 0.0 4.8 0.00 0.20 0.00 65 1007.2
20260507060204 11 212 0.0 4.8 0.00 0.23 0.00 78 1007.2
20260507054704 11 212 1.6 8.0 0.00 0.23 0.00 78 1006.9
20260507051204 9 212 1.6 3.2 0.00 0.36 0.00 80 1006.6
20260507050705 8 212 1.6 8.0 0.00 0.36 0.00 82 1006.6
20260507050205 8 212 0.0 3.2 0.00 0.36 0.00 81 1006.6
20260507044704 8 212 0.0 0.0 0.00 0.36 0.00 78 1006.6
20260507044205 8 212 0.0 1.6 0.00 0.38 0.00 78 1006.4
20260507043204 8 212 0.0 4.8 0.00 0.41 0.00 77 1006.4
20260507040704 8 212 0.0 3.2 0.00 0.58 0.00 78 1006.4
20260507040205 8 212 3.2 4.8 0.00 0.61 0.00 79 1006.1
20260507034704 8 212 0.0 1.6 0.00 0.64 0.00 79 1006.1
20260507031704 8 212 0.0 1.6 0.00 0.66 0.00 80 1006.2
20260507031204 9 212 0.0 0.0 0.00 0.66 0.00 81 1006.2
20260507030704 8 212 0.0 1.6 0.00 0.66 0.00 81 1006.2
20260507024204 8 212 0.0 0.0 0.00 0.69 0.00 81 1006.0
20260507023204 9 212 0.0 4.8 0.00 0.69 0.00 81 1006.0
20260507021204 9 212 1.6 4.8 0.00 0.76 0.00 80 1006.0
20260507014704 9 212 0.0 1.6 0.00 0.86 0.00 80 1005.8
20260507014204 9 212 0.0 0.0 0.00 0.89 0.00 79 1005.8
20260507013704 9 212 0.0 0.0 0.00 0.89 0.00 79 1005.8
20260507013205 9 212 0.0 0.0 0.00 0.91 0.00 80 1005.9
20260507011704 9 212 0.0 0.0 0.00 0.91 0.00 77 1005.6
20260507010205 9 212 0.0 1.6 0.00 0.94 0.00 76 1005.6
20260507004205 10 212 0.0 0.0 0.00 1.14 0.00 76 1005.8
20260507003704 10 212 0.0 1.6 0.00 1.14 0.00 76 1005.8
20260507001204 10 212 0.0 0.0 0.00 1.27 0.00 74 1005.8
20260506233204 11 212 0.0 1.6 0.00 1.27 0.00 67 1005.7
20260506231705 12 212 0.0 1.6 0.00 1.27 0.00 69 1005.6
20260506223705 12 212 0.0 1.6 0.00 1.27 0.00 69 1005.7
20260506221705 13 212 0.0 3.2 0.00 1.27 0.00 66 1005.7
20260506220205 13 212 1.6 4.8 0.00 1.27 0.00 64 1005.6
20260506213706 13 212 0.0 4.8 0.00 1.27 1.27 61 1005.6
20260506213206 13 212 1.6 4.8 0.00 1.27 1.27 60 1005.6
20260506211205 13 212 0.0 3.2 0.00 1.27 1.27 53 1005.3
20260506210705 13 212 1.6 9.7 0.00 1.27 1.27 55 1005.3
20260506204705 14 212 0.0 1.6 0.00 1.27 1.27 61 1005.3
20260506204205 14 212 0.0 0.0 0.00 1.27 1.27 58 1005.3
20260506203705 14 212 0.0 4.8 0.00 1.27 1.27 58 1005.3
20260506203204 14 212 3.2 11.3 0.00 1.27 1.27 57 1005.3
20260506201205 15 212 0.0 4.8 0.00 1.27 1.27 57 1004.6
20260506193204 14 212 0.0 3.2 0.00 1.27 1.27 62 1003.7